DRAGON CRS-24

Last updated on Tue Jan 25 2022 00:02:05 GMT+0000 (Coordinated Universal Time)

1 50318U 21127A 22024.24239617 .00460259 11413-4 29666-3 0 9996 2 50318 51.6428 329.2624 0140283 68.3239 293.2582 15.98636115 5249

Satellite not in orbit

DRAGON CRS-24